Year,Month,Day,Hour,Minute,Value (Times are PST for temperature in C)
2015,05,19,00,00,15.80
2015,05,19,00,01,15.70
2015,05,19,00,02,15.70
2015,05,19,00,03,15.70
2015,05,19,00,04,15.70
2015,05,19,00,05,15.60
2015,05,19,00,06,15.70
2015,05,19,00,07,15.70
2015,05,19,00,08,15.70
2015,05,19,00,09,15.70
2015,05,19,00,10,15.70
2015,05,19,00,11,15.70
2015,05,19,00,12,15.70
2015,05,19,00,13,15.60
2015,05,19,00,14,15.60
2015,05,19,00,15,15.60
2015,05,19,00,16,15.60
2015,05,19,00,17,15.50
2015,05,19,00,18,15.50
2015,05,19,00,19,15.40
2015,05,19,00,20,15.40
2015,05,19,00,21,15.40
2015,05,19,00,22,15.30
2015,05,19,00,23,15.30
2015,05,19,00,24,15.30
2015,05,19,00,25,15.40
2015,05,19,00,26,15.40
2015,05,19,00,27,15.40
2015,05,19,00,28,15.50
2015,05,19,00,29,15.50
2015,05,19,00,30,15.60
2015,05,19,00,31,15.60
2015,05,19,00,32,15.70
2015,05,19,00,33,15.70
2015,05,19,00,34,15.70
2015,05,19,00,35,15.70
2015,05,19,00,36,15.70
2015,05,19,00,37,15.70
2015,05,19,00,38,15.70
2015,05,19,00,39,15.60
2015,05,19,00,40,15.60
2015,05,19,00,41,15.60
2015,05,19,00,42,15.60
2015,05,19,00,43,15.60
2015,05,19,00,44,15.50
2015,05,19,00,45,15.50
2015,05,19,00,46,15.40
2015,05,19,00,47,15.40
2015,05,19,00,48,15.40
2015,05,19,00,49,15.40
2015,05,19,00,50,15.30
2015,05,19,00,51,15.30
2015,05,19,00,52,15.30
2015,05,19,00,53,15.30
2015,05,19,00,54,15.40
2015,05,19,00,55,15.40
2015,05,19,00,56,15.40
2015,05,19,00,57,15.40
2015,05,19,00,58,15.40
2015,05,19,00,59,15.40
2015,05,19,01,00,15.40
2015,05,19,01,01,15.40
2015,05,19,01,02,15.40
2015,05,19,01,03,15.30
2015,05,19,01,04,15.30
2015,05,19,01,05,15.30
2015,05,19,01,06,15.30
2015,05,19,01,07,15.20
2015,05,19,01,08,15.20
2015,05,19,01,09,15.20
2015,05,19,01,10,15.20
2015,05,19,01,11,15.10
2015,05,19,01,12,15.10
2015,05,19,01,13,15.10
2015,05,19,01,14,15.00
2015,05,19,01,15,15.00
2015,05,19,01,16,14.90
2015,05,19,01,17,14.90
2015,05,19,01,18,14.90
2015,05,19,01,19,14.90
2015,05,19,01,20,14.80
2015,05,19,01,21,14.80
2015,05,19,01,22,14.80
2015,05,19,01,23,14.80
2015,05,19,01,24,14.70
2015,05,19,01,25,14.70
2015,05,19,01,26,14.70
2015,05,19,01,27,14.70
2015,05,19,01,28,14.70
2015,05,19,01,29,14.60
2015,05,19,01,30,14.60
2015,05,19,01,31,14.60
2015,05,19,01,32,14.60
2015,05,19,01,33,14.60
2015,05,19,01,34,14.50
2015,05,19,01,35,14.50
2015,05,19,01,36,14.50
2015,05,19,01,37,14.50
2015,05,19,01,38,14.50
2015,05,19,01,39,14.50
2015,05,19,01,40,14.50
2015,05,19,01,41,14.50
2015,05,19,01,42,14.50
2015,05,19,01,43,14.50
2015,05,19,01,44,14.50
2015,05,19,01,45,14.50
2015,05,19,01,46,14.50
2015,05,19,01,47,14.40
2015,05,19,01,48,14.40
2015,05,19,01,49,14.40
2015,05,19,01,50,14.40
2015,05,19,01,51,14.40
2015,05,19,01,52,14.30
2015,05,19,01,53,14.30
2015,05,19,01,54,14.30
2015,05,19,01,55,14.30
2015,05,19,01,56,14.20
2015,05,19,01,57,14.20
2015,05,19,01,58,14.20
2015,05,19,01,59,14.20
2015,05,19,02,00,14.10
2015,05,19,02,01,14.10
2015,05,19,02,02,14.10
2015,05,19,02,03,14.10
2015,05,19,02,04,14.10
2015,05,19,02,05,14.10
2015,05,19,02,06,14.10
2015,05,19,02,07,14.10
2015,05,19,02,08,14.10
2015,05,19,02,09,14.10
2015,05,19,02,10,14.10
2015,05,19,02,11,14.10
2015,05,19,02,12,14.10
2015,05,19,02,13,14.10
2015,05,19,02,14,14.10
2015,05,19,02,15,14.10
2015,05,19,02,16,14.10
2015,05,19,02,17,14.20
2015,05,19,02,18,14.20
2015,05,19,02,19,14.20
2015,05,19,02,20,14.20
2015,05,19,02,21,14.20
2015,05,19,02,22,14.30
2015,05,19,02,23,14.30
2015,05,19,02,24,14.30
2015,05,19,02,25,14.30
2015,05,19,02,26,14.30
2015,05,19,02,27,14.30
2015,05,19,02,28,14.30
2015,05,19,02,29,14.30
2015,05,19,02,30,14.30
2015,05,19,02,31,14.30
2015,05,19,02,32,14.40
2015,05,19,02,33,14.40
2015,05,19,02,34,14.50
2015,05,19,02,35,14.50
2015,05,19,02,36,14.50
2015,05,19,02,37,14.50
2015,05,19,02,38,14.50
2015,05,19,02,39,14.50
2015,05,19,02,40,14.50
2015,05,19,02,41,14.50
2015,05,19,02,42,14.40
2015,05,19,02,43,14.40
2015,05,19,02,44,14.40
2015,05,19,02,45,14.40
2015,05,19,02,46,14.40
2015,05,19,02,47,14.50
2015,05,19,02,48,14.50
2015,05,19,02,49,14.50
2015,05,19,02,50,14.40
2015,05,19,02,51,14.40
2015,05,19,02,52,14.40
2015,05,19,02,53,14.40
2015,05,19,02,54,14.40
2015,05,19,02,55,14.40
2015,05,19,02,56,14.40
2015,05,19,02,57,14.40
2015,05,19,02,58,14.40
2015,05,19,02,59,14.40
2015,05,19,03,00,14.40
2015,05,19,03,01,14.40
2015,05,19,03,02,14.40
2015,05,19,03,03,14.40
2015,05,19,03,04,14.30
2015,05,19,03,05,14.30
2015,05,19,03,06,14.30
2015,05,19,03,07,14.30
2015,05,19,03,08,14.30
2015,05,19,03,09,14.20
2015,05,19,03,10,14.20
2015,05,19,03,11,14.20
2015,05,19,03,12,14.20
2015,05,19,03,13,14.10
2015,05,19,03,14,14.10
2015,05,19,03,15,14.10
2015,05,19,03,16,14.10
2015,05,19,03,17,14.10
2015,05,19,03,18,14.00
2015,05,19,03,19,14.00
2015,05,19,03,20,14.00
2015,05,19,03,21,14.00
2015,05,19,03,22,14.00
2015,05,19,03,23,14.00
2015,05,19,03,24,14.00
2015,05,19,03,25,14.00
2015,05,19,03,26,14.10
2015,05,19,03,27,14.10
2015,05,19,03,28,14.10
2015,05,19,03,29,14.10
2015,05,19,03,30,14.10
2015,05,19,03,31,14.10
2015,05,19,03,32,14.10
2015,05,19,03,33,14.10
2015,05,19,03,34,14.10
2015,05,19,03,35,14.10
2015,05,19,03,36,14.10
2015,05,19,03,37,14.00
2015,05,19,03,38,14.00
2015,05,19,03,39,14.00
2015,05,19,03,40,14.00
2015,05,19,03,41,14.00
2015,05,19,03,42,14.00
2015,05,19,03,43,14.00
2015,05,19,03,44,14.00
2015,05,19,03,45,14.00
2015,05,19,03,46,13.90
2015,05,19,03,47,13.90
2015,05,19,03,48,13.90
2015,05,19,03,49,13.90
2015,05,19,03,50,13.90
2015,05,19,03,51,13.90
2015,05,19,03,52,13.90
2015,05,19,03,53,13.90
2015,05,19,03,54,13.90
2015,05,19,03,55,13.90
2015,05,19,03,56,13.90
2015,05,19,03,57,13.90
2015,05,19,03,58,13.90
2015,05,19,03,59,13.90
2015,05,19,04,00,13.90
2015,05,19,04,01,13.90
2015,05,19,04,02,13.90
2015,05,19,04,03,13.80
2015,05,19,04,04,13.80
2015,05,19,04,05,13.80
2015,05,19,04,06,13.80
2015,05,19,04,07,13.90
2015,05,19,04,08,13.90
2015,05,19,04,09,13.90
2015,05,19,04,10,13.90
2015,05,19,04,11,13.90
2015,05,19,04,12,13.80
2015,05,19,04,13,13.80
2015,05,19,04,14,13.80
2015,05,19,04,15,13.80
2015,05,19,04,16,13.80
2015,05,19,04,17,13.80
2015,05,19,04,18,13.80
2015,05,19,04,19,13.80
2015,05,19,04,20,13.80
2015,05,19,04,21,13.70
2015,05,19,04,22,13.70
2015,05,19,04,23,13.70
2015,05,19,04,24,13.70
2015,05,19,04,25,13.70
2015,05,19,04,26,13.70
2015,05,19,04,27,13.80
2015,05,19,04,28,13.80
2015,05,19,04,29,13.80
2015,05,19,04,30,13.80
2015,05,19,04,31,13.90
2015,05,19,04,32,13.90
2015,05,19,04,33,13.90
2015,05,19,04,34,13.90
2015,05,19,04,35,13.90
2015,05,19,04,36,13.90
2015,05,19,04,37,13.90
2015,05,19,04,38,13.90
2015,05,19,04,39,13.90
2015,05,19,04,40,13.90
2015,05,19,04,41,13.90
2015,05,19,04,42,13.90
2015,05,19,04,43,13.90
2015,05,19,04,44,13.80
2015,05,19,04,45,13.80
2015,05,19,04,46,13.80
2015,05,19,04,47,13.80
2015,05,19,04,48,13.80
2015,05,19,04,49,13.80
2015,05,19,04,50,13.80
2015,05,19,04,51,13.80
2015,05,19,04,52,13.80
2015,05,19,04,53,13.80
2015,05,19,04,54,13.70
2015,05,19,04,55,13.70
2015,05,19,04,56,13.70
2015,05,19,04,57,13.70
2015,05,19,04,58,13.70
2015,05,19,04,59,13.70
2015,05,19,05,00,13.70
2015,05,19,05,01,13.70
2015,05,19,05,02,13.70
2015,05,19,05,03,13.60
2015,05,19,05,04,13.70
2015,05,19,05,05,13.70
2015,05,19,05,06,13.70
2015,05,19,05,07,13.70
2015,05,19,05,08,13.70
2015,05,19,05,09,13.70
2015,05,19,05,10,13.70
2015,05,19,05,11,13.60
2015,05,19,05,12,13.60
2015,05,19,05,13,13.60
2015,05,19,05,14,13.60
2015,05,19,05,15,13.60
2015,05,19,05,16,13.60
2015,05,19,05,17,13.60
2015,05,19,05,18,13.60
2015,05,19,05,19,13.60
2015,05,19,05,20,13.60
2015,05,19,05,21,13.60
2015,05,19,05,22,13.60
2015,05,19,05,23,13.60
2015,05,19,05,24,13.60
2015,05,19,05,25,13.60
2015,05,19,05,26,13.60
2015,05,19,05,27,13.60
2015,05,19,05,28,13.50
2015,05,19,05,29,13.50
2015,05,19,05,30,13.50
2015,05,19,05,31,13.50
2015,05,19,05,32,13.50
2015,05,19,05,33,13.40
2015,05,19,05,34,13.40
2015,05,19,05,35,13.40
2015,05,19,05,36,13.40
2015,05,19,05,37,13.40
2015,05,19,05,38,13.40
2015,05,19,05,39,13.40
2015,05,19,05,40,13.40
2015,05,19,05,41,13.30
2015,05,19,05,42,13.30
2015,05,19,05,43,13.30
2015,05,19,05,44,13.30
2015,05,19,05,45,13.30
2015,05,19,05,46,13.30
2015,05,19,05,47,13.30
2015,05,19,05,48,13.30
2015,05,19,05,49,13.30
2015,05,19,05,50,13.30
2015,05,19,05,51,13.20
2015,05,19,05,52,13.20
2015,05,19,05,53,13.20
2015,05,19,05,54,13.20
2015,05,19,05,55,13.20
2015,05,19,05,56,13.20
2015,05,19,05,57,13.20
2015,05,19,05,58,13.20
2015,05,19,05,59,13.20
2015,05,19,06,00,13.20
2015,05,19,06,01,13.20
2015,05,19,06,02,13.20
2015,05,19,06,03,13.10
2015,05,19,06,04,13.20
2015,05,19,06,05,13.20
2015,05,19,06,06,13.20
2015,05,19,06,07,13.20
2015,05,19,06,08,13.20
2015,05,19,06,09,13.20
2015,05,19,06,10,13.20
2015,05,19,06,11,13.20
2015,05,19,06,12,13.20
2015,05,19,06,13,13.20
2015,05,19,06,14,13.10
2015,05,19,06,15,13.10
2015,05,19,06,16,13.10
2015,05,19,06,17,13.10
2015,05,19,06,18,13.10
2015,05,19,06,19,13.10
2015,05,19,06,20,13.10
2015,05,19,06,21,13.10
2015,05,19,06,22,13.10
2015,05,19,06,23,13.10
2015,05,19,06,24,13.10
2015,05,19,06,25,13.10
2015,05,19,06,26,13.10
2015,05,19,06,27,13.10
2015,05,19,06,28,13.10
2015,05,19,06,29,13.10
2015,05,19,06,30,13.10
2015,05,19,06,31,13.10
2015,05,19,06,32,13.10
2015,05,19,06,33,13.10
2015,05,19,06,34,13.10
2015,05,19,06,35,13.10
2015,05,19,06,36,13.10
2015,05,19,06,37,13.10
2015,05,19,06,38,13.10
2015,05,19,06,39,13.10
2015,05,19,06,40,13.10
2015,05,19,06,41,13.10
2015,05,19,06,42,13.10
2015,05,19,06,43,13.10
2015,05,19,06,44,13.10
2015,05,19,06,45,13.10
2015,05,19,06,46,13.10
2015,05,19,06,47,13.10
2015,05,19,06,48,13.10
2015,05,19,06,49,13.10
2015,05,19,06,50,13.10
2015,05,19,06,51,13.10
2015,05,19,06,52,13.10
2015,05,19,06,53,13.10
2015,05,19,06,54,13.10
2015,05,19,06,55,13.10
2015,05,19,06,56,13.10
2015,05,19,06,57,13.10
2015,05,19,06,58,13.10
2015,05,19,06,59,13.10
2015,05,19,07,00,13.10
2015,05,19,07,01,13.10
2015,05,19,07,02,13.20
2015,05,19,07,03,13.20
2015,05,19,07,04,13.20
2015,05,19,07,05,13.20
2015,05,19,07,06,13.20
2015,05,19,07,07,13.20
2015,05,19,07,08,13.20
2015,05,19,07,09,13.20
2015,05,19,07,10,13.20
2015,05,19,07,11,13.30
2015,05,19,07,12,13.30
2015,05,19,07,13,13.30
2015,05,19,07,14,13.30
2015,05,19,07,15,13.30
2015,05,19,07,16,13.30
2015,05,19,07,17,13.30
2015,05,19,07,18,13.30
2015,05,19,07,19,13.40
2015,05,19,07,20,13.40
2015,05,19,07,21,13.40
2015,05,19,07,22,13.40
2015,05,19,07,23,13.40
2015,05,19,07,24,13.40
2015,05,19,07,25,13.40
2015,05,19,07,26,13.40
2015,05,19,07,27,13.40
2015,05,19,07,28,13.40
2015,05,19,07,29,13.50
2015,05,19,07,30,13.50
2015,05,19,07,31,13.50
2015,05,19,07,32,13.60
2015,05,19,07,33,13.60
2015,05,19,07,34,13.60
2015,05,19,07,35,13.60
2015,05,19,07,36,13.70
2015,05,19,07,37,13.70
2015,05,19,07,38,13.70
2015,05,19,07,39,13.70
2015,05,19,07,40,13.80
2015,05,19,07,41,13.80
2015,05,19,07,42,13.80
2015,05,19,07,43,13.90
2015,05,19,07,44,13.90
2015,05,19,07,45,13.90
2015,05,19,07,46,14.00
2015,05,19,07,47,14.10
2015,05,19,07,48,14.10
2015,05,19,07,49,14.10
2015,05,19,07,50,14.20
2015,05,19,07,51,14.20
2015,05,19,07,52,14.30
2015,05,19,07,53,14.30
2015,05,19,07,54,14.30
2015,05,19,07,55,14.30
2015,05,19,07,56,14.30
2015,05,19,07,57,14.40
2015,05,19,07,58,14.40
2015,05,19,07,59,14.40
2015,05,19,08,00,14.50
2015,05,19,08,01,14.50
2015,05,19,08,02,14.60
2015,05,19,08,03,14.60
2015,05,19,08,04,14.60
2015,05,19,08,05,14.60
2015,05,19,08,06,14.70
2015,05,19,08,07,14.70
2015,05,19,08,08,14.70
2015,05,19,08,09,14.70
2015,05,19,08,10,14.80
2015,05,19,08,11,14.80
2015,05,19,08,12,14.90
2015,05,19,08,13,14.90
2015,05,19,08,14,14.90
2015,05,19,08,15,15.00
2015,05,19,08,16,15.00
2015,05,19,08,17,15.00
2015,05,19,08,18,15.10
2015,05,19,08,19,15.10
2015,05,19,08,20,15.10
2015,05,19,08,21,15.20
2015,05,19,08,22,15.20
2015,05,19,08,23,15.20
2015,05,19,08,24,15.20
2015,05,19,08,25,15.10
2015,05,19,08,26,15.10
2015,05,19,08,27,15.10
2015,05,19,08,28,15.10
2015,05,19,08,29,15.20
2015,05,19,08,30,15.20
2015,05,19,08,31,15.20
2015,05,19,08,32,15.20
2015,05,19,08,33,15.20
2015,05,19,08,34,15.20
2015,05,19,08,35,15.20
2015,05,19,08,36,15.20
2015,05,19,08,37,15.20
2015,05,19,08,38,15.20
2015,05,19,08,39,15.20
2015,05,19,08,40,15.20
2015,05,19,08,41,15.30
2015,05,19,08,42,15.30
2015,05,19,08,43,15.30
2015,05,19,08,44,15.30
2015,05,19,08,45,15.30
2015,05,19,08,46,15.30
2015,05,19,08,47,15.40
2015,05,19,08,48,15.40
2015,05,19,08,49,15.40
2015,05,19,08,50,15.40
2015,05,19,08,51,15.40
2015,05,19,08,52,15.50
2015,05,19,08,53,15.50
2015,05,19,08,54,15.60
2015,05,19,08,55,15.60
2015,05,19,08,56,15.70
2015,05,19,08,57,15.70
2015,05,19,08,58,15.70
2015,05,19,08,59,15.80
2015,05,19,09,00,15.80
2015,05,19,09,01,15.80
2015,05,19,09,02,15.90
2015,05,19,09,03,16.00
2015,05,19,09,04,16.00
2015,05,19,09,05,16.10
2015,05,19,09,06,16.10
2015,05,19,09,07,16.20
2015,05,19,09,08,16.20
2015,05,19,09,09,16.20
2015,05,19,09,10,16.30
2015,05,19,09,11,16.30
2015,05,19,09,12,16.30
2015,05,19,09,13,16.30
2015,05,19,09,14,16.30
2015,05,19,09,15,16.40
2015,05,19,09,16,16.40
2015,05,19,09,17,16.40
2015,05,19,09,18,16.40
2015,05,19,09,19,16.40
2015,05,19,09,20,16.50
2015,05,19,09,21,16.50
2015,05,19,09,22,16.60
2015,05,19,09,23,16.60
2015,05,19,09,24,16.70
2015,05,19,09,25,16.70
2015,05,19,09,26,16.70
2015,05,19,09,27,16.70
2015,05,19,09,28,16.70
2015,05,19,09,29,16.70
2015,05,19,09,30,16.70
2015,05,19,09,31,16.70
2015,05,19,09,32,16.70
2015,05,19,09,33,16.70
2015,05,19,09,34,16.70
2015,05,19,09,35,16.70
2015,05,19,09,36,16.80
2015,05,19,09,37,16.80
2015,05,19,09,38,16.80
2015,05,19,09,39,16.80
2015,05,19,09,40,16.80
2015,05,19,09,41,16.80
2015,05,19,09,42,16.70
2015,05,19,09,43,16.70
2015,05,19,09,44,16.70
2015,05,19,09,45,16.80
2015,05,19,09,46,16.80
2015,05,19,09,47,16.80
2015,05,19,09,48,16.80
2015,05,19,09,49,16.80
2015,05,19,09,50,16.80
2015,05,19,09,51,16.80
2015,05,19,09,52,16.90
2015,05,19,09,53,16.90
2015,05,19,09,54,16.90
2015,05,19,09,55,16.90
2015,05,19,09,56,17.00
2015,05,19,09,57,17.00
2015,05,19,09,58,17.10
2015,05,19,09,59,17.20
2015,05,19,10,00,17.30
2015,05,19,10,01,17.40
2015,05,19,10,02,17.40
2015,05,19,10,03,17.30
2015,05,19,10,04,17.30
2015,05,19,10,05,17.30
2015,05,19,10,06,17.30
2015,05,19,10,07,17.30
2015,05,19,10,08,17.30
2015,05,19,10,09,17.30
2015,05,19,10,10,17.40
2015,05,19,10,11,17.40
2015,05,19,10,12,17.40
2015,05,19,10,13,17.40
2015,05,19,10,14,17.40
2015,05,19,10,15,17.40
2015,05,19,10,16,17.40
2015,05,19,10,17,17.40
2015,05,19,10,18,17.40
2015,05,19,10,19,17.50
2015,05,19,10,20,17.60
2015,05,19,10,21,17.60
2015,05,19,10,22,17.70
2015,05,19,10,23,17.70
2015,05,19,10,24,17.80
2015,05,19,10,25,17.80
2015,05,19,10,26,17.90
2015,05,19,10,27,18.00
2015,05,19,10,28,18.10
2015,05,19,10,29,18.20
2015,05,19,10,30,18.20
2015,05,19,10,31,18.20
2015,05,19,10,32,18.20
2015,05,19,10,33,18.30
2015,05,19,10,34,18.30
2015,05,19,10,35,18.30
2015,05,19,10,36,18.40
2015,05,19,10,37,18.40
2015,05,19,10,38,18.40
2015,05,19,10,39,18.40
2015,05,19,10,40,18.50
2015,05,19,10,41,18.60
2015,05,19,10,42,18.60
2015,05,19,10,43,18.70
2015,05,19,10,44,18.70
2015,05,19,10,45,18.70
2015,05,19,10,46,18.70
2015,05,19,10,47,18.80
2015,05,19,10,48,18.90
2015,05,19,10,49,18.90
2015,05,19,10,50,18.90
2015,05,19,10,51,18.90
2015,05,19,10,52,18.90
2015,05,19,10,53,18.90
2015,05,19,10,54,18.90
2015,05,19,10,55,18.90
2015,05,19,10,56,19.00
2015,05,19,10,57,19.00
2015,05,19,10,58,19.10
2015,05,19,10,59,19.10
2015,05,19,11,00,19.20
2015,05,19,11,01,19.20
2015,05,19,11,02,19.30
2015,05,19,11,03,19.30
2015,05,19,11,04,19.30
2015,05,19,11,05,19.40
2015,05,19,11,06,19.40
2015,05,19,11,07,19.40
2015,05,19,11,08,19.40
2015,05,19,11,09,19.40
2015,05,19,11,10,19.40
2015,05,19,11,11,19.50
2015,05,19,11,12,19.50
2015,05,19,11,13,19.60
2015,05,19,11,14,19.60
2015,05,19,11,15,19.50
2015,05,19,11,16,19.50
2015,05,19,11,17,19.50
2015,05,19,11,18,19.40
2015,05,19,11,19,19.50
2015,05,19,11,20,19.60
2015,05,19,11,21,19.60
2015,05,19,11,22,19.70
2015,05,19,11,23,19.80
2015,05,19,11,24,19.80
2015,05,19,11,25,20.00
2015,05,19,11,26,20.10
2015,05,19,11,27,20.10
2015,05,19,11,28,20.20
2015,05,19,11,29,20.30
2015,05,19,11,30,20.40
2015,05,19,11,31,20.50
2015,05,19,11,32,20.60
2015,05,19,11,33,20.70
2015,05,19,11,34,20.70
2015,05,19,11,35,20.70
2015,05,19,11,36,20.70
2015,05,19,11,37,20.80
2015,05,19,11,38,20.80
2015,05,19,11,39,20.80
2015,05,19,11,40,20.80
2015,05,19,11,41,20.80
2015,05,19,11,42,20.80
2015,05,19,11,43,20.80
2015,05,19,11,44,20.80
2015,05,19,11,45,20.80
2015,05,19,11,46,20.80
2015,05,19,11,47,20.80
2015,05,19,11,48,20.80
2015,05,19,11,49,20.80
2015,05,19,11,50,20.80
2015,05,19,11,51,20.80
2015,05,19,11,52,20.80
2015,05,19,11,53,20.90
2015,05,19,11,54,20.90
2015,05,19,11,55,21.00
2015,05,19,11,56,21.00
2015,05,19,11,57,21.10
2015,05,19,11,58,21.10
2015,05,19,11,59,21.10
2015,05,19,12,00,21.00
2015,05,19,12,01,20.90
2015,05,19,12,02,20.90
2015,05,19,12,03,20.90
2015,05,19,12,04,20.90
2015,05,19,12,05,20.90
2015,05,19,12,06,21.00
2015,05,19,12,07,21.10
2015,05,19,12,08,21.10
2015,05,19,12,09,21.20
2015,05,19,12,10,21.20
2015,05,19,12,11,21.30
2015,05,19,12,12,21.30
2015,05,19,12,13,21.40
2015,05,19,12,14,21.40
2015,05,19,12,15,21.30
2015,05,19,12,16,21.40
2015,05,19,12,17,21.40
2015,05,19,12,18,21.40
2015,05,19,12,19,21.40
2015,05,19,12,20,21.50
2015,05,19,12,21,21.50
2015,05,19,12,22,21.50
2015,05,19,12,23,21.60
2015,05,19,12,24,21.60
2015,05,19,12,25,21.70
2015,05,19,12,26,21.70
2015,05,19,12,27,21.80
2015,05,19,12,28,21.70
2015,05,19,12,29,21.80
2015,05,19,12,30,21.80
2015,05,19,12,31,21.70
2015,05,19,12,32,21.70
2015,05,19,12,33,21.60
2015,05,19,12,34,21.50
2015,05,19,12,35,21.40
2015,05,19,12,36,21.40
2015,05,19,12,37,21.40
2015,05,19,12,38,21.40
2015,05,19,12,39,21.50
2015,05,19,12,40,21.50
2015,05,19,12,41,21.50
2015,05,19,12,42,21.60
2015,05,19,12,43,21.60
2015,05,19,12,44,21.70
2015,05,19,12,45,21.70
2015,05,19,12,46,21.80
2015,05,19,12,47,21.90
2015,05,19,12,48,21.90
2015,05,19,12,49,21.90
2015,05,19,12,50,22.00
2015,05,19,12,51,22.00
2015,05,19,12,52,22.10
2015,05,19,12,53,22.10
2015,05,19,12,54,22.20
2015,05,19,12,55,22.30
2015,05,19,12,56,22.30
2015,05,19,12,57,22.30
2015,05,19,12,58,22.30
2015,05,19,12,59,22.30
2015,05,19,13,00,22.30
2015,05,19,13,01,22.30
2015,05,19,13,02,22.30
2015,05,19,13,03,22.30
2015,05,19,13,04,22.30
2015,05,19,13,05,22.30
2015,05,19,13,06,22.40
2015,05,19,13,07,22.40
2015,05,19,13,08,22.40
2015,05,19,13,09,22.40
2015,05,19,13,10,22.40
2015,05,19,13,11,22.40
2015,05,19,13,12,22.40
2015,05,19,13,13,22.30
2015,05,19,13,14,22.30
2015,05,19,13,15,22.30
2015,05,19,13,16,22.30
2015,05,19,13,17,22.30
2015,05,19,13,18,22.40
2015,05,19,13,19,22.40
2015,05,19,13,20,22.40
2015,05,19,13,21,22.40
2015,05,19,13,22,22.50
2015,05,19,13,23,22.70
2015,05,19,13,24,22.80
2015,05,19,13,25,22.90
2015,05,19,13,26,23.00
2015,05,19,13,27,23.00
2015,05,19,13,28,23.10
2015,05,19,13,29,23.00
2015,05,19,13,30,23.00
2015,05,19,13,31,22.90
2015,05,19,13,32,22.90
2015,05,19,13,33,22.80
2015,05,19,13,34,22.70
2015,05,19,13,35,22.70
2015,05,19,13,36,22.70
2015,05,19,13,37,22.80
2015,05,19,13,38,22.90
2015,05,19,13,39,22.90
2015,05,19,13,40,23.00
2015,05,19,13,41,23.00
2015,05,19,13,42,22.90
2015,05,19,13,43,22.90
2015,05,19,13,44,22.90
2015,05,19,13,45,22.80
2015,05,19,13,46,22.80
2015,05,19,13,47,22.80
2015,05,19,13,48,22.80
2015,05,19,13,49,22.90
2015,05,19,13,50,23.00
2015,05,19,13,51,23.10
2015,05,19,13,52,23.20
2015,05,19,13,53,23.20
2015,05,19,13,54,23.30
2015,05,19,13,55,23.40
2015,05,19,13,56,23.40
2015,05,19,13,57,23.40
2015,05,19,13,58,23.50
2015,05,19,13,59,23.60
2015,05,19,14,00,23.60
2015,05,19,14,01,23.70
2015,05,19,14,02,23.60
2015,05,19,14,03,23.70
2015,05,19,14,04,23.70
2015,05,19,14,05,23.70
2015,05,19,14,06,23.80
2015,05,19,14,07,23.80
2015,05,19,14,08,23.80
2015,05,19,14,09,23.80
2015,05,19,14,10,23.70
2015,05,19,14,11,23.70
2015,05,19,14,12,23.80
2015,05,19,14,13,23.90
2015,05,19,14,14,24.00
2015,05,19,14,15,24.20
2015,05,19,14,16,24.40
2015,05,19,14,17,24.60
2015,05,19,14,18,24.70
2015,05,19,14,19,24.70
2015,05,19,14,20,24.70
2015,05,19,14,21,24.70
2015,05,19,14,22,24.70
2015,05,19,14,23,24.70
2015,05,19,14,24,24.60
2015,05,19,14,25,24.60
2015,05,19,14,26,24.60
2015,05,19,14,27,24.60
2015,05,19,14,28,24.60
2015,05,19,14,29,24.70
2015,05,19,14,30,24.80
2015,05,19,14,31,24.80
2015,05,19,14,32,24.90
2015,05,19,14,33,24.80
2015,05,19,14,34,24.80
2015,05,19,14,35,24.80
2015,05,19,14,36,24.80
2015,05,19,14,37,24.70
2015,05,19,14,38,24.60
2015,05,19,14,39,24.60
2015,05,19,14,40,24.40
2015,05,19,14,41,24.30
2015,05,19,14,42,24.10
2015,05,19,14,43,24.00
2015,05,19,14,44,23.90
2015,05,19,14,45,23.80
2015,05,19,14,46,23.80
2015,05,19,14,47,23.80
2015,05,19,14,48,23.80
2015,05,19,14,49,23.90
2015,05,19,14,50,23.90
2015,05,19,14,51,24.00
2015,05,19,14,52,24.10
2015,05,19,14,53,24.20
2015,05,19,14,54,24.40
2015,05,19,14,55,24.40
2015,05,19,14,56,24.50
2015,05,19,14,57,24.60
2015,05,19,14,58,24.70
2015,05,19,14,59,24.70
2015,05,19,15,00,24.80
2015,05,19,15,01,24.90
2015,05,19,15,02,24.90
2015,05,19,15,03,24.90
2015,05,19,15,04,24.90
2015,05,19,15,05,25.00
2015,05,19,15,06,25.10
2015,05,19,15,07,25.20
2015,05,19,15,08,25.30
2015,05,19,15,09,25.30
2015,05,19,15,10,25.40
2015,05,19,15,11,25.50
2015,05,19,15,12,25.50
2015,05,19,15,13,25.50
2015,05,19,15,14,25.40
2015,05,19,15,15,25.40
2015,05,19,15,16,25.40
2015,05,19,15,17,25.40
2015,05,19,15,18,25.50
2015,05,19,15,19,25.50
2015,05,19,15,20,25.60
2015,05,19,15,21,25.60
2015,05,19,15,22,25.60
2015,05,19,15,23,25.70
2015,05,19,15,24,25.70
2015,05,19,15,25,25.70
2015,05,19,15,26,25.70
2015,05,19,15,27,25.60
2015,05,19,15,28,25.60
2015,05,19,15,29,25.60
2015,05,19,15,30,25.70
2015,05,19,15,31,25.60
2015,05,19,15,32,25.60
2015,05,19,15,33,25.50
2015,05,19,15,34,25.40
2015,05,19,15,35,25.40
2015,05,19,15,36,25.40
2015,05,19,15,37,25.30
2015,05,19,15,38,25.30
2015,05,19,15,39,25.30
2015,05,19,15,40,25.20
2015,05,19,15,41,25.20
2015,05,19,15,42,25.20
2015,05,19,15,43,25.20
2015,05,19,15,44,25.20
2015,05,19,15,45,25.20
2015,05,19,15,46,25.10
2015,05,19,15,47,25.10
2015,05,19,15,48,25.10
2015,05,19,15,49,25.10
2015,05,19,15,50,25.00
2015,05,19,15,51,25.00
2015,05,19,15,52,24.90
2015,05,19,15,53,24.90
2015,05,19,15,54,24.90
2015,05,19,15,55,25.00
2015,05,19,15,56,25.00
2015,05,19,15,57,25.10
2015,05,19,15,58,25.10
2015,05,19,15,59,25.20
2015,05,19,16,00,25.30
2015,05,19,16,01,25.40
2015,05,19,16,02,25.40
2015,05,19,16,03,25.40
2015,05,19,16,04,25.30
2015,05,19,16,05,25.20
2015,05,19,16,06,25.10
2015,05,19,16,07,25.00
2015,05,19,16,08,25.10
2015,05,19,16,09,25.10
2015,05,19,16,10,25.10
2015,05,19,16,11,25.20
2015,05,19,16,12,25.30
2015,05,19,16,13,25.40
2015,05,19,16,14,25.50
2015,05,19,16,15,25.60
2015,05,19,16,16,25.60
2015,05,19,16,17,25.60
2015,05,19,16,18,25.60
2015,05,19,16,19,25.60
2015,05,19,16,20,25.60
2015,05,19,16,21,25.60
2015,05,19,16,22,25.60
2015,05,19,16,23,25.60
2015,05,19,16,24,25.60
2015,05,19,16,25,25.60
2015,05,19,16,26,25.70
2015,05,19,16,27,25.80
2015,05,19,16,28,26.00
2015,05,19,16,29,26.10
2015,05,19,16,30,26.20
2015,05,19,16,31,26.30
2015,05,19,16,32,26.30
2015,05,19,16,33,26.30
2015,05,19,16,34,26.30
2015,05,19,16,35,26.30
2015,05,19,16,36,26.40
2015,05,19,16,37,26.40
2015,05,19,16,38,26.50
2015,05,19,16,39,26.60
2015,05,19,16,40,26.60
2015,05,19,16,41,26.60
2015,05,19,16,42,26.70
2015,05,19,16,43,26.60
2015,05,19,16,44,26.60
2015,05,19,16,45,26.60
2015,05,19,16,46,26.50
2015,05,19,16,47,26.50
2015,05,19,16,48,26.40
2015,05,19,16,49,26.30
2015,05,19,16,50,26.30
2015,05,19,16,51,26.30
2015,05,19,16,52,26.30
2015,05,19,16,53,26.30
2015,05,19,16,54,26.30
2015,05,19,16,55,26.30
2015,05,19,16,56,26.30
2015,05,19,16,57,26.30
2015,05,19,16,58,26.40
2015,05,19,16,59,26.40
2015,05,19,17,00,26.40
2015,05,19,17,01,26.40
2015,05,19,17,02,26.50
2015,05,19,17,03,26.50
2015,05,19,17,04,26.60
2015,05,19,17,05,26.70
2015,05,19,17,06,26.70
2015,05,19,17,07,26.80
2015,05,19,17,08,26.80
2015,05,19,17,09,26.90
2015,05,19,17,10,26.90
2015,05,19,17,11,26.90
2015,05,19,17,12,26.90
2015,05,19,17,13,26.90
2015,05,19,17,14,26.80
2015,05,19,17,15,26.80
2015,05,19,17,16,26.80
2015,05,19,17,17,26.80
2015,05,19,17,18,26.70
2015,05,19,17,19,26.70